Location: Emblem
(62.4273°N, 6.4710°E)
Time: 15:27:11
(UTC+02:00)

Altair - Pass Details

Date: 16 February 2023
Orbit: 1501 x 1682 km, 47.2° (Epoch: 31 March)

Event Time Altitude Azimuth Distance (km) Brightness Sun altitude
Rises 20:28:59 0° 261° (W) 4,749 11.1 -22.3°
Reaches altitude 10° 20:32:30 10° 251° (WSW) 3,791 10.3 -22.7°
Maximum altitude 20:40:24 30° 196° (SSW) 2,608 8.6 -23.6°
Enters shadow 20:44:54 21° 158° (SSE) 3,079 8.7 -24.1°
